KE7MWT Weather Reports


Display with metric or nautical units.
time (UTC)temp
F
wind
direction
speed
MPH
gust
MPH
rain 1hr
in
rain 24hr
in
rain mn
in
humidity
%
barometer
mb
20260503180825 90 128 1.0 6.0 0.00 0.00 0.00 20 1015.1
20260503180317 89 182 2.0 7.0 0.00 0.00 0.00 21 1015.1
20260503175825 89 142 2.0 6.0 0.00 0.00 0.00 20 1015.2
20260503175338 89 175 3.0 8.0 0.00 0.00 0.00 21 1015.1
20260503174823 89 112 3.0 8.0 0.00 0.00 0.00 20 1015.2
20260503174316 89 138 2.0 7.0 0.00 0.00 0.00 20 1015.3
20260503173824 89 132 2.0 7.0 0.00 0.00 0.00 20 1015.3
20260503173315 88 101 1.0 7.0 0.00 0.00 0.00 21 1015.3
20260503172820 88 109 3.0 7.0 0.00 0.00 0.00 21 1015.3
20260503172333 88 101 2.0 10.0 0.00 0.00 0.00 21 1015.3
20260503171820 87 108 3.0 10.0 0.00 0.00 0.00 21 1015.3
20260503171315 87 111 2.0 12.0 0.00 0.00 0.00 21 1015.4
20260503170821 87 109 2.0 12.0 0.00 0.00 0.00 21 1015.4
20260503170333 87 84 3.0 8.0 0.00 0.00 0.00 22 1015.5
20260503150819 80 92 2.0 10.0 0.00 0.00 0.00 28 1015.6
20260503150332 80 74 3.0 10.0 0.00 0.00 0.00 27 1015.6
20260503131314 77 95 1.0 7.0 0.00 0.00 0.00 29 1014.9
20260503130822 77 86 2.0 7.0 0.00 0.00 0.00 29 1015.0
20260503130336 77 90 1.0 7.0 0.00 0.00 0.00 29 1014.9
20260503110826 77 96 1.0 3.0 0.00 0.00 0.00 28 1014.6
20260503110338 77 96 1.0 4.0 0.00 0.00 0.00 28 1014.6
20260503090325 78 94 2.0 7.0 0.00 0.00 0.00 23 1014.2
20260503081326 76 101 1.0 4.0 0.00 0.00 0.00 24 1014.7
20260503080854 76 103 1.0 3.0 0.00 0.00 0.00 24 1014.7
20260503080323 76 103 1.0 4.0 0.00 0.00 0.00 24 1014.8
20260503072829 74 169 1.0 4.0 0.00 0.00 0.00 25 1014.7
20260503072319 74 169 1.0 2.0 0.00 0.00 0.00 26 1014.8
20260503071826 74 169 1.0 2.0 0.00 0.00 0.00 26 1014.8
20260503071316 74 169 0.0 2.0 0.00 0.00 0.00 27 1014.8
20260503070844 74 169 0.0 0.0 0.00 0.00 0.00 27 1014.8
20260503070315 74 169 0.0 0.0 0.00 0.00 0.00 28 1014.7
20260503060327 76 169 0.0 1.0 0.00 0.00 0.00 24 1014.6
20260503054818 76 169 0.0 2.0 0.00 0.00 0.00 22 1014.5
20260503054329 76 169 0.0 3.0 0.00 0.00 0.00 22 1014.5
20260503053817 76 169 1.0 3.0 0.00 0.00 0.00 22 1014.4
20260503053328 76 169 1.0 3.0 0.00 0.00 0.00 23 1014.4
20260503052816 76 169 1.0 2.0 0.00 0.00 0.00 22 1014.4
20260503052347 76 169 0.0 3.0 0.00 0.00 0.00 23 1014.4
20260503051854 76 169 1.0 3.0 0.00 0.00 0.00 22 1014.5
20260503051344 76 169 1.0 2.0 0.00 0.00 0.00 22 1014.5
20260503050831 76 169 2.0 2.0 0.00 0.00 0.00 24 1014.5
20260503050322 76 169 1.0 2.0 0.00 0.00 0.00 25 1014.5
20260503045832 76 169 1.0 2.0 0.00 0.00 0.00 26 1014.4
20260503045342 76 170 0.0 0.0 0.00 0.00 0.00 28 1014.3
20260503044830 76 170 0.0 0.0 0.00 0.00 0.00 29 1014.3
20260503044320 77 170 0.0 0.0 0.00 0.00 0.00 28 1014.1
20260503043827 77 170 0.0 0.0 0.00 0.00 0.00 27 1014.0
20260503043318 77 170 0.0 0.0 0.00 0.00 0.00 26 1013.9
20260503042845 77 170 0.0 0.0 0.00 0.00 0.00 26 1013.8
20260503042335 78 170 0.0 0.0 0.00 0.00 0.00 25 1013.8
20260503041842 78 169 0.0 0.0 0.00 0.00 0.00 25 1013.8
20260503041332 78 169 0.0 0.0 0.00 0.00 0.00 25 1013.7
20260503040820 79 170 0.0 0.0 0.00 0.00 0.00 24 1013.6
20260503040315 79 169 0.0 0.0 0.00 0.00 0.00 24 1013.5
20260503035822 79 169 0.0 0.0 0.00 0.00 0.00 23 1013.5
20260503035353 80 170 0.0 0.0 0.00 0.00 0.00 22 1013.4
20260503034820 80 170 0.0 0.0 0.00 0.00 0.00 22 1013.3
20260503034351 80 170 0.0 0.0 0.00 0.00 0.00 23 1013.4
20260503033818 81 169 0.0 0.0 0.00 0.00 0.00 21 1013.3
20260503033327 81 170 0.0 0.0 0.00 0.00 0.00 20 1013.2
20260503032814 82 169 0.0 0.0 0.00 0.00 0.00 20 1013.2
20260503032325 82 170 0.0 0.0 0.00 0.00 0.00 19 1013.2
20260503031833 82 170 0.0 0.0 0.00 0.00 0.00 19 1013.1
20260503031344 83 170 0.0 0.0 0.00 0.00 0.00 18 1013.1
20260503030831 83 170 0.0 0.0 0.00 0.00 0.00 19 1013.2
20260503030343 84 169 0.0 0.0 0.00 0.00 0.00 18 1013.1
20260503025833 84 170 0.0 0.0 0.00 0.00 0.00 17 1013.1
20260503025323 85 170 0.0 0.0 0.00 0.00 0.00 16 1013.0
20260503024830 85 170 0.0 0.0 0.00 0.00 0.00 16 1013.1
20260503024341 86 169 0.0 0.0 0.00 0.00 0.00 15 1013.0
20260503023828 86 170 0.0 0.0 0.00 0.00 0.00 14 1012.9
20260503023339 87 170 0.0 0.0 0.00 0.00 0.00 13 1012.9
20260503022825 88 170 0.0 0.0 0.00 0.00 0.00 13 1012.8
20260503022314 88 170 0.0 0.0 0.00 0.00 0.00 13 1012.8
20260503021842 89 170 0.0 0.0 0.00 0.00 0.00 12 1012.8
20260503021332 89 169 0.0 0.0 0.00 0.00 0.00 12 1012.8
20260503020839 89 169 0.0 0.0 0.00 0.00 0.00 11 1012.8
20260503020327 90 169 0.0 0.0 0.00 0.00 0.00 11 1012.9
20260503015854 90 170 0.0 3.0 0.00 0.00 0.00 11 1012.9
20260503015324 90 170 0.0 3.0 0.00 0.00 0.00 10 1012.9
20260503014816 91 170 0.0 2.0 0.00 0.00 0.00 10 1012.9
20260503014325 91 170 0.0 5.0 0.00 0.00 0.00 10 1013.0
20260503013832 91 170 3.0 5.0 0.00 0.00 0.00 10 1013.0
20260503013323 92 170 0.0 2.0 0.00 0.00 0.00 11 1013.0
20260503012828 92 170 0.0 3.0 0.00 0.00 0.00 10 1013.0
20260503012319 92 170 0.0 6.0 0.00 0.00 0.00 10 1013.1
20260503011826 93 163 1.0 5.0 0.00 0.00 0.00 10 1013.1
20260503011316 93 163 0.0 3.0 0.00 0.00 0.00 10 1013.1
20260503010824 93 163 1.0 5.0 0.00 0.00 0.00 10 1013.1
20260503010315 93 163 3.0 5.0 0.00 0.00 0.00 10 1013.1
20260503005824 94 97 2.0 4.0 0.00 0.00 0.00 9 1013.1
20260503005315 94 96 0.0 3.0 0.00 0.00 0.00 8 1013.1
20260503004822 95 96 1.0 3.0 0.00 0.00 0.00 8 1013.1
20260503004314 95 96 1.0 4.0 0.00 0.00 0.00 9 1013.1
20260503003819 96 96 2.0 4.0 0.00 0.00 0.00 8 1013.2
20260503003330 96 109 0.0 4.0 0.00 0.00 0.00 8 1013.2
20260503002847 96 109 1.0 4.0 0.00 0.00 0.00 8 1013.2
20260503002317 96 109 1.0 3.0 0.00 0.00 0.00 8 1013.2
20260503001824 96 109 1.0 3.0 0.00 0.00 0.00 8 1013.2
20260503001336 96 109 1.0 4.0 0.00 0.00 0.00 8 1013.3
20260503000821 95 109 0.0 4.0 0.00 0.00 0.00 9 1013.3
20260503000318 96 109 1.0 4.0 0.00 0.00 0.00 8 1013.4
20260502235843 96 109 1.0 4.0 0.00 0.00 0.00 8 1013.4
20260502235313 96 110 2.0 4.0 0.00 0.00 0.00 9 1013.4
20260502234821 96 109 1.0 4.0 0.00 0.00 0.00 9 1013.2
20260502234332 96 101 1.0 4.0 0.00 0.00 0.00 9 1013.3
20260502233819 96 101 0.0 6.0 0.00 0.00 0.00 9 1013.3
20260502233330 96 101 1.0 7.0 0.00 0.00 0.00 8 1013.4
20260502232817 96 61 1.0 9.0 0.00 0.00 0.00 9 1013.4
20260502232348 97 62 2.0 9.0 0.00 0.00 0.00 9 1013.4
20260502231814 98 80 2.0 7.0 0.00 0.00 0.00 9 1013.4
20260502231325 97 20 2.0 5.0 0.00 0.00 0.00 9 1013.3
20260502230816 97 355 2.0 5.0 0.00 0.00 0.00 8 1013.4
20260502230328 96 304 3.0 5.0 0.00 0.00 0.00 9 1013.5
20260502225813 97 198 1.0 3.0 0.00 0.00 0.00 8 1013.6
20260502225345 97 198 1.0 4.0 0.00 0.00 0.00 8 1013.7
20260502224830 97 198 2.0 4.0 0.00 0.00 0.00 9 1013.8
20260502224322 96 242 2.0 3.0 0.00 0.00 0.00 10 1013.8
20260502223827 96 252 2.0 5.0 0.00 0.00 0.00 9 1013.9
20260502223338 96 252 3.0 5.0 0.00 0.00 0.00 9 1013.9
20260502222823 96 190 0.0 9.0 0.00 0.00 0.00 8 1014.0
20260502222314 96 192 5.0 9.0 0.00 0.00 0.00 9 1014.1
20260502221821 97 202 0.0 6.0 0.00 0.00 0.00 9 1014.2
20260502221315 97 202 2.0 9.0 0.00 0.00 0.00 9 1014.2
20260502220823 96 199 2.0 8.0 0.00 0.00 0.00 10 1014.2
20260502220313 97 189 4.0 7.0 0.00 0.00 0.00 9 1014.3
20260502215820 97 202 2.0 5.0 0.00 0.00 0.00 9 1014.4
20260502215331 97 163 2.0 6.0 0.00 0.00 0.00 9 1014.5
20260502214839 97 157 2.0 7.0 0.00 0.00 0.00 9 1014.7
20260502214329 97 104 0.0 6.0 0.00 0.00 0.00 9 1014.7
20260502213815 97 105 1.0 6.0 0.00 0.00 0.00 10 1014.7
20260502213347 96 332 0.0 8.0 0.00 0.00 0.00 10 1014.8
20260502212831 96 331 1.0 8.0 0.00 0.00 0.00 9 1014.9
20260502212322 96 360 1.0 6.0 0.00 0.00 0.00 10 1014.9
20260502211813 96 172 2.0 5.0 0.00 0.00 0.00 10 1015.0
20260502211325 96 196 1.0 7.0 0.00 0.00 0.00 10 1015.2
20260502210831 96 182 1.0 8.0 0.00 0.00 0.00 11 1015.2
20260502210323 96 190 2.0 8.0 0.00 0.00 0.00 11 1015.3
20260502205850 95 334 1.0 6.0 0.00 0.00 0.00 9 1015.3
20260502205320 95 88 2.0 6.0 0.00 0.00 0.00 10 1015.4
20260502204827 96 217 2.0 4.0 0.00 0.00 0.00 9 1015.5
20260502204318 95 161 1.0 6.0 0.00 0.00 0.00 10 1015.8
20260502203825 95 169 3.0 8.0 0.00 0.00 0.00 12 1015.7
20260502203315 95 116 4.0 8.0 0.00 0.00 0.00 12 1015.7
20260502202842 95 101 2.0 7.0 0.00 0.00 0.00 12 1015.9
20260502202316 95 198 2.0 8.0 0.00 0.00 0.00 11 1015.9
20260502201823 95 158 1.0 5.0 0.00 0.00 0.00 12 1016.0
20260502201314 95 158 3.0 5.0 0.00 0.00 0.00 13 1016.1
20260502200821 94 159 1.0 6.0 0.00 0.00 0.00 12 1016.1
20260502200332 94 207 1.0 10.0 0.00 0.00 0.00 13 1016.2
20260502195820 94 182 4.0 10.0 0.00 0.00 0.00 14 1016.2
20260502195328 93 95 1.0 11.0 0.00 0.00 0.00 14 1016.3
20260502194853 93 96 4.0 11.0 0.00 0.00 0.00 14 1016.4
20260502194341 93 75 2.0 8.0 0.00 0.00 0.00 14 1016.4
20260502193824 93 91 2.0 8.0 0.00 0.00 0.00 15 1016.5
20260502193314 92 91 1.0 8.0 0.00 0.00 0.00 14 1016.5
20260502192839 92 63 3.0 10.0 0.00 0.00 0.00 15 1016.6
20260502192331 92 101 5.0 10.0 0.00 0.00 0.00 16 1016.6
20260502191816 92 103 1.0 6.0 0.00 0.00 0.00 15 1016.8
20260502191325 92 105 1.0 6.0 0.00 0.00 0.00 15 1016.8
20260502190831 92 89 1.0 10.0 0.00 0.00 0.00 16 1016.9
20260502190341 92 95 2.0 10.0 0.00 0.00 0.00 16 1017.0
20260502185823 91 76 2.0 9.0 0.00 0.00 0.00 17 1017.1
20260502185315 91 63 1.0 8.0 0.00 0.00 0.00 17 1017.2
20260502184819 91 65 2.0 9.0 0.00 0.00 0.00 16 1017.2
20260502184328 90 90 3.0 11.0 0.00 0.00 0.00 17 1017.3
20260502183853 90 82 5.0 11.0 0.00 0.00 0.00 17 1017.4
20260502183321 91 89 4.0 8.0 0.00 0.00 0.00 17 1017.5
20260502182826 90 96 1.0 9.0 0.00 0.00 0.00 17 1017.5
20260502182319 90 96 2.0 8.0 0.00 0.00 0.00 18 1017.7
20260502181824 90 128 2.0 9.0 0.00 0.00 0.00 18 1017.7
20260502181353 89 140 1.0 9.0 0.00 0.00 0.00 17 1017.9